ECMWFNIL_850_temp_003.txt.gz
Temp
10 10 10 10 10 10 10 9 9 9 9 9 9 9 9 9 9 9 9 9 9 9 9 9 9 9 9 10 10 9 9 9 9 9 10 11 11 11 12 12 12 12
10 10 10 10 9 9 9 9 9 9 9 9 9 9 9 9 9 9 9 9 9 9 9 9 9 9 9 10 10 9 8 8 9 9 9 10 11 11 11 12 12 12
9 9 9 9 9 9 9 9 9 9 9 9 8 8 8 8 8 8 8 8 8 8 8 7 7 8 9 9 9 9 9 8 8 9 9 9 10 10 11 11 11 11
9 9 9 9 9 9 9 9 9 8 8 8 8 8 8 7 7 7 7 6 6 6 6 5 5 5 6 8 8 8 9 8 8 8 8 9 9 10 10 11 11 11
9 9 9 9 9 9 9 8 8 8 8 8 8 7 7 6 5 6 5 5 4 4 4 4 4 4 4 5 6 7 8 8 8 7 7 8 9 9 10 10 11 11
9 9 9 9 9 8 8 8 8 8 8 7 7 6 6 5 4 4 4 4 4 4 4 3 3 3 3 4 4 5 6 7 7 7 7 7 8 9 10 10 10 11
9 9 9 8 8 8 8 8 8 7 7 6 5 5 4 4 3 3 3 3 3 3 3 3 3 3 3 3 4 4 5 6 6 6 6 7 8 9 9 10 10 11
9 8 8 8 8 8 8 7 7 7 6 5 4 4 3 3 3 3 3 3 3 3 3 3 2 2 2 3 3 4 4 5 5 5 6 6 7 8 9 9 10 11
8 8 8 8 8 7 7 7 6 6 5 4 4 4 4 4 4 3 3 2 3 3 2 2 2 2 2 2 3 3 4 4 5 6 6 6 6 7 8 9 10 10
8 8 7 7 7 7 7 6 6 5 5 4 4 4 4 4 4 3 3 3 2 2 2 2 2 2 2 2 2 3 3 3 4 6 7 7 7 7 7 8 8 9
7 7 7 7 7 7 7 6 5 5 4 4 4 4 4 4 3 3 3 2 2 2 2 2 2 2 2 2 2 2 3 3 4 5 6 8 8 7 8 8 8 8
7 7 7 7 7 7 6 6 5 4 4 4 4 4 4 3 3 3 2 2 2 2 2 2 2 2 2 2 2 2 2 2 3 4 5 7 8 8 8 8 8 8
6 6 7 7 7 6 6 5 5 4 4 3 3 3 3 3 3 2 2 2 2 2 2 2 2 2 2 2 2 2 2 2 2 3 4 5 7 9 9 9 8 8
6 6 7 6 6 6 5 4 4 3 3 3 3 3 2 2 2 2 2 2 2 2 2 2 1 1 1 1 2 2 2 2 2 2 3 3 5 7 9 9 9 8
6 6 6 6 5 5 4 4 3 3 3 2 2 2 2 2 2 2 2 2 2 1 1 1 1 1 2 2 2 2 2 2 2 2 2 2 3 4 6 8 8 8
6 5 5 5 4 4 4 3 3 3 2 2 2 2 2 2 2 2 2 1 1 1 1 1 1 1 2 2 3 3 2 2 2 2 2 2 2 3 3 5 7 7
5 5 5 5 4 4 3 3 3 3 2 2 2 2 2 1 1 1 1 1 1 1 1 1 1 1 1 2 2 2 2 2 1 1 1 1 2 2 3 3 5 7
5 5 5 5 4 4 3 3 3 3 2 2 2 2 1 1 1 1 1 1 1 1 1 1 1 1 1 1 1 1 1 1 0 0 1 1 1 2 2 3 4 5
5 5 5 4 4 4 3 3 2 2 2 2 2 1 0 0 0 0 0 0 0 0 0 0 0 0 0 0 0 0 -0 -0 -0 -0 -0 -0 0 1 1 2 3 4
5 5 5 4 4 3 3 2 2 2 2 2 1 1 0 -0 -0 -0 -0 -1 -0 -0 -0 -0 -0 -0 -0 -0 -0 -0 -1 -1 -1 -1 -1 -1 -0 -0 0 1 2 3
5 5 4 4 4 3 3 2 2 2 2 2 1 0 -0 -0 -1 -1 -1 -1 -1 -1 -1 -1 -1 -1 -1 -1 -1 -1 -1 -1 -1 -1 -1 -1 -1 -1 -0 0 1 2
5 4 4 4 3 3 3 3 3 2 2 1 0 -0 -0 -0 -1 -1 -1 -1 -1 -1 -1 -1 -1 -1 -1 -1 -1 -1 -1 -1 -1 -1 -1 -1 -1 -1 -1 -0 0 1
5 4 4 4 3 3 3 3 2 2 1 1 0 -0 -0 -0 -1 -1 -1 -1 -1 -1 -1 -1 -1 -1 -2 -2 -2 -2 -1 -1 -1 -1 -1 -1 -1 -1 -1 -1 -0 0
4 4 4 4 3 3 3 3 2 1 1 0 -0 -0 -1 -1 -1 -1 -1 -1 -1 -2 -2 -2 -2 -2 -2 -2 -2 -2 -2 -2 -2 -2 -1 -1 -1 -1 -1 -1 -0 -0
4 4 4 3 3 3 2 2 2 1 0 -0 -1 -1 -1 -1 -1 -1 -1 -2 -2 -2 -2 -2 -2 -2 -2 -2 -2 -2 -2 -2 -2 -2 -2 -1 -1 -1 -1 -0 -0 -0
4 4 3 3 3 2 2 1 1 1 -0 -1 -1 -1 -1 -2 -2 -2 -2 -2 -2 -2 -3 -3 -2 -2 -2 -2 -2 -2 -2 -2 -2 -2 -2 -2 -1 -1 -1 -0 -0 0

ECMWFNIL_850_temp_006.txt.gz
Temp
12 11 11 11 11 10 10 10 10 10 10 10 10 9 9 9 9 9 9 9 9 9 9 9 9 10 10 10 10 10 10 9 9 10 10 10 10 10 10 11 11 11
12 11 11 11 10 10 10 10 10 10 10 10 10 9 9 9 9 8 8 8 8 8 8 8 8 8 8 9 9 9 10 10 10 9 10 10 9 10 10 10 11 11
12 11 10 10 10 10 10 10 10 10 10 9 9 9 9 9 9 8 8 8 8 8 7 7 7 6 6 7 7 7 8 9 9 9 9 9 9 9 9 10 10 10
12 11 10 10 10 10 10 10 10 10 9 9 9 9 9 9 9 8 8 8 7 7 6 6 6 5 5 6 6 6 7 7 8 9 9 9 9 9 9 9 9 10
11 11 10 10 10 9 10 10 9 9 9 9 9 9 9 9 9 8 8 7 7 6 6 5 5 4 4 5 5 5 6 7 8 8 8 8 9 9 9 9 9 9
11 11 10 10 10 9 9 9 9 9 9 9 9 9 9 9 8 8 7 7 7 6 5 5 4 4 4 4 4 4 5 5 7 7 7 8 8 8 8 9 9 9
11 11 10 10 9 9 9 9 9 9 9 9 9 8 8 8 7 7 6 6 6 6 5 4 4 4 4 4 4 4 4 4 5 6 7 7 8 8 7 8 8 8
11 11 10 9 9 9 9 9 9 9 8 8 8 8 7 7 6 6 6 6 5 5 5 4 4 3 3 3 3 3 3 3 3 4 5 6 7 7 7 7 7 8
11 10 10 9 9 9 9 8 8 8 8 8 8 7 6 6 6 5 5 5 5 5 4 4 4 3 3 3 3 3 3 3 3 3 3 4 6 7 7 8 7 8
10 9 9 9 9 8 8 8 8 8 7 7 7 6 6 5 5 5 5 5 5 4 4 4 3 3 3 3 2 2 2 2 2 3 3 3 4 5 6 7 7 8
9 9 9 8 8 8 8 8 7 7 7 6 6 6 5 5 5 5 4 4 4 4 4 3 3 3 3 3 2 2 2 2 2 2 3 3 3 4 4 6 6 7
9 8 8 8 8 8 7 7 7 6 6 6 5 5 5 5 5 4 4 4 4 4 3 3 3 3 3 2 2 2 2 2 2 2 2 3 3 4 4 5 5 5
9 8 8 7 7 7 7 6 6 6 5 5 5 5 5 4 4 4 4 4 3 3 3 3 3 3 2 2 2 2 2 2 2 2 2 2 3 4 4 4 4 5
8 8 7 7 7 7 6 6 6 5 5 5 5 5 4 4 4 3 3 3 3 3 3 3 2 2 2 2 2 2 2 2 2 2 2 2 2 3 4 4 4 4
7 7 7 7 7 6 6 6 5 5 5 5 5 4 4 3 3 3 3 3 2 2 2 2 2 2 2 2 2 2 2 2 2 2 2 2 2 2 2 3 4 4
7 7 7 7 7 6 6 5 5 5 5 5 4 4 3 3 3 3 2 2 2 2 2 2 2 2 2 2 2 1 1 1 1 1 1 1 2 2 2 2 2 3
7 7 7 7 6 6 5 5 5 5 5 5 4 3 3 3 3 2 2 1 1 1 1 1 1 1 1 1 1 1 1 1 1 1 1 1 1 1 1 1 1 2
7 7 6 6 6 6 5 5 5 5 5 5 4 3 3 3 3 2 2 1 1 1 0 0 1 1 1 1 1 1 1 1 1 1 1 1 0 0 0 0 1 1
7 6 6 6 6 5 5 5 5 5 5 4 4 3 3 3 2 2 1 1 1 0 0 0 -0 -0 -0 -0 0 0 1 1 1 0 0 0 0 0 0 -0 -0 0
7 6 6 6 6 5 5 5 5 5 4 4 3 3 3 3 2 2 1 1 0 0 0 -0 -0 -1 -1 -0 -0 -0 0 0 0 0 0 0 -0 -0 -0 -0 -0 -0
6 6 6 6 6 5 5 5 5 4 4 3 3 3 3 2 2 1 1 0 0 0 0 -0 -0 -0 -1 -1 -1 -1 -1 -1 -1 -1 -0 -0 -0 -0 -1 -1 -0 -0
6 6 6 6 5 5 5 5 4 4 3 3 3 3 2 2 1 1 0 0 0 0 -0 -0 -0 -0 -1 -1 -1 -1 -1 -1 -1 -1 -1 -1 -1 -1 -1 -1 -1 -1
6 6 6 5 5 5 5 4 4 4 3 3 3 2 2 1 1 0 0 -0 -0 -0 -0 -0 -1 -1 -1 -1 -1 -1 -1 -1 -2 -2 -2 -2 -2 -1 -1 -1 -1 -1
6 6 5 5 5 5 5 4 4 3 3 3 2 2 1 1 0 0 -0 -1 -1 -1 -1 -1 -1 -1 -1 -2 -2 -2 -2 -2 -2 -2 -2 -2 -2 -2 -2 -2 -2 -1
6 5 5 5 5 4 4 4 3 3 2 2 2 1 1 0 -0 -1 -1 -1 -1 -1 -1 -2 -2 -2 -2 -2 -2 -2 -2 -2 -3 -3 -2 -2 -2 -2 -2 -2 -2 -2
5 5 5 5 4 4 4 3 3 2 2 2 1 1 0 -0 -1 -1 -2 -2 -2 -2 -2 -2 -2 -2 -2 -2 -2 -2 -2 -3 -3 -3 -3 -2 -2 -2 -2 -2 -2 -2

ECMWFNIL_850_temp_009.txt.gz
Temp
12 12 12 11 11 11 10 10 10 10 10 10 10 10 9 9 9 9 9 9 9 9 9 9 9 9 8 8 9 9 9 9 10 10 10 10 10 10 10 10 10 9
12 12 12 12 11 11 11 10 10 10 10 10 10 10 9 9 9 9 9 9 9 9 9 9 8 8 7 7 7 8 8 8 9 9 9 9 9 9 10 10 10 10
13 13 12 12 12 11 11 11 11 10 10 10 10 10 9 9 9 9 9 9 9 9 8 8 8 7 7 6 6 6 7 7 8 8 8 9 9 9 9 10 10 10
13 13 13 12 12 11 11 11 11 10 10 10 10 9 9 9 9 9 9 9 8 8 8 7 7 7 6 6 5 5 5 6 6 6 7 8 8 8 9 9 9 10
13 13 13 12 12 11 11 11 11 10 10 10 9 9 9 9 9 9 9 9 8 8 7 7 6 6 6 6 5 5 5 5 5 5 6 7 7 8 8 9 9 9
13 13 12 12 12 11 11 11 11 10 10 9 9 9 9 9 9 9 9 8 8 7 7 6 6 6 6 6 5 5 5 5 5 4 5 6 7 7 7 8 8 8
13 13 12 12 12 11 11 11 10 10 10 9 9 9 9 9 9 9 8 8 7 6 6 6 6 5 5 5 5 5 5 5 5 4 4 5 6 6 7 7 7 7
13 13 12 12 12 11 11 10 10 10 9 9 9 9 9 9 9 8 8 7 7 6 6 6 5 5 4 4 4 4 5 4 4 4 4 4 4 5 7 7 7 7
13 13 12 12 12 11 11 10 10 9 9 9 9 9 9 9 9 8 7 7 6 6 6 5 5 5 4 4 4 4 4 4 4 3 3 3 3 4 5 5 6 6
13 13 12 12 12 11 11 10 9 9 9 9 9 9 9 9 9 8 7 6 6 6 5 5 5 4 4 4 4 4 3 3 3 2 2 2 3 3 3 3 3 4
12 12 12 12 11 11 10 10 9 9 9 9 9 9 9 9 8 8 7 6 6 5 5 4 4 4 4 3 3 3 3 3 2 2 2 2 2 2 2 2 2 2
12 12 12 11 11 10 10 9 9 8 8 9 9 9 8 8 8 8 7 6 6 5 5 4 4 4 3 3 3 3 2 2 2 2 2 2 2 2 2 2 1 2
12 12 11 11 10 10 9 9 8 8 8 8 8 8 8 8 7 7 7 6 6 5 5 4 4 3 3 3 3 2 2 2 2 2 2 2 2 2 1 1 1 1
11 11 11 10 10 9 8 8 8 8 8 8 8 8 7 7 6 6 6 6 5 5 4 4 3 3 3 3 2 2 2 2 2 2 2 1 1 1 1 1 1 1
11 10 10 9 9 8 8 8 8 8 8 8 8 7 7 6 6 6 5 5 4 4 4 3 3 3 3 2 2 2 1 1 1 1 1 1 1 1 1 1 1 1
10 9 9 9 8 8 8 8 7 7 7 7 7 6 6 5 5 5 4 4 4 3 3 3 3 3 3 2 2 1 1 1 1 1 1 1 1 1 1 1 1 1
9 9 8 8 8 7 7 7 7 7 7 7 6 6 5 5 4 4 4 3 3 3 3 3 3 2 2 1 1 0 0 0 0 0 1 1 1 1 1 1 0 0
9 8 8 7 7 7 7 7 7 6 6 6 6 5 5 4 4 3 3 3 3 3 3 2 2 2 1 1 0 -0 -0 -0 -0 -0 -0 0 0 0 0 0 0 0
8 8 7 7 7 7 7 7 6 6 6 6 5 5 4 4 3 3 3 3 3 3 2 2 2 1 1 0 -0 -0 -1 -1 -1 -1 -1 -1 -0 -0 -0 -0 -0 -0
8 8 7 7 7 6 6 6 6 6 5 5 5 4 4 3 3 3 3 3 2 2 2 2 1 1 0 -0 -0 -1 -1 -1 -1 -1 -1 -1 -1 -1 -1 -1 -1 -1
8 7 7 6 6 6 6 6 6 5 5 5 4 4 3 3 3 3 3 2 2 2 1 1 1 0 -0 -0 -1 -1 -1 -1 -1 -1 -1 -1 -1 -1 -2 -2 -2 -2
7 7 6 6 6 6 6 6 5 5 5 4 4 3 3 3 3 3 2 2 2 1 1 0 0 -0 -1 -1 -1 -1 -1 -1 -1 -1 -1 -1 -2 -2 -2 -2 -2 -2
7 7 6 6 6 6 5 5 5 5 4 4 3 3 3 3 3 2 2 1 1 1 0 -0 -1 -1 -1 -1 -1 -1 -2 -2 -2 -2 -2 -2 -2 -2 -2 -2 -2 -2
7 7 6 6 6 5 5 5 5 4 4 4 4 3 3 3 2 2 1 1 0 -0 -1 -1 -2 -2 -2 -2 -2 -2 -2 -2 -2 -2 -2 -2 -2 -2 -2 -2 -2 -2
7 7 6 6 5 5 5 5 5 4 4 4 3 3 2 2 2 1 1 1 -0 -1 -1 -1 -2 -2 -2 -2 -3 -3 -3 -3 -3 -3 -3 -3 -3 -3 -3 -2 -2 -2
7 6 6 6 5 5 5 4 4 4 3 3 2 2 2 2 2 1 1 0 -0 -1 -1 -1 -2 -2 -2 -2 -3 -3 -3 -3 -3 -3 -3 -3 -3 -3 -3 -3 -3 -3

ECMWFNIL_850_temp_015.txt.gz
Temp
13 13 13 13 12 12 12 11 11 11 11 11 11 11 11 11 10 10 10 10 9 9 9 9 9 10 9 9 10 10 10 10 10 9 9 9 9 9 9 9 9 9
13 13 13 13 12 12 12 12 11 11 11 11 11 11 10 10 10 10 10 10 9 9 9 9 9 9 9 9 10 10 10 10 9 9 9 9 9 8 8 9 9 9
13 13 13 13 13 13 12 12 12 11 11 11 11 10 10 10 10 10 10 9 9 9 9 9 9 9 9 9 10 10 10 10 9 9 9 8 8 8 8 8 8 8
13 13 13 13 13 13 12 12 12 11 11 11 11 10 10 10 10 10 10 9 9 9 9 9 9 9 9 10 10 10 9 9 9 8 8 8 7 7 7 7 8 8
13 13 13 13 13 13 12 12 12 12 11 11 11 10 10 10 10 10 9 9 9 9 9 9 9 9 9 10 10 10 9 9 8 8 7 7 7 7 7 7 7 7
13 13 13 13 13 13 12 12 12 12 11 11 10 10 10 10 9 9 9 9 9 9 9 9 9 9 10 10 10 9 9 8 8 8 7 7 6 6 6 6 7 7
13 13 13 13 13 13 12 12 12 12 11 11 10 10 10 9 9 9 9 8 8 9 9 8 9 9 9 9 9 8 8 7 7 7 6 6 6 6 5 5 6 6
13 13 13 13 13 13 12 12 12 12 11 11 10 10 9 9 9 8 8 8 8 8 8 8 8 9 8 8 7 7 6 6 6 6 5 5 5 5 5 5 5 6
14 13 13 13 13 13 13 12 12 12 11 11 10 9 9 9 8 8 8 8 8 8 8 8 8 8 7 7 6 6 6 5 5 5 4 4 4 4 4 4 4 5
14 13 13 13 13 13 12 12 12 12 11 11 10 9 9 8 8 8 8 8 8 8 8 7 7 7 7 6 6 5 5 5 4 4 4 4 3 3 3 3 3 3
14 14 13 13 13 12 12 12 12 11 11 11 10 9 8 8 8 8 8 8 8 8 7 7 6 6 6 6 5 5 5 4 4 4 4 4 3 3 3 3 2 2
14 14 14 13 13 12 12 12 12 11 11 10 9 9 8 8 8 8 8 8 7 7 7 6 6 5 5 5 5 5 4 4 4 3 3 3 3 3 3 3 3 2
14 14 14 14 13 12 12 11 11 11 10 10 9 8 8 8 8 7 7 7 7 7 6 6 5 5 5 5 5 4 4 3 3 3 3 3 3 3 3 3 3 3
14 14 14 13 13 13 12 11 11 11 10 9 8 8 7 7 7 7 7 7 7 6 6 5 5 5 4 4 4 3 3 3 3 2 2 2 3 3 3 3 3 3
12 12 13 13 13 12 12 11 11 10 9 8 8 8 7 7 7 7 7 7 6 6 6 5 5 5 4 4 3 3 3 2 2 2 2 2 2 3 3 3 3 3
11 11 11 11 11 11 10 10 10 9 8 8 8 7 7 7 7 6 6 6 6 6 5 5 5 4 3 3 3 3 2 2 2 2 2 2 2 2 2 2 2 2
11 11 10 10 9 8 8 9 9 9 8 7 7 7 7 6 6 6 6 6 6 5 5 4 4 3 3 3 2 2 2 2 2 2 2 2 2 2 2 2 2 2
11 11 11 10 8 8 8 8 8 8 8 7 7 7 6 6 6 6 6 5 5 5 4 4 3 3 3 2 2 2 2 2 2 2 2 2 2 2 2 1 1 1
11 11 11 10 8 9 9 8 8 8 7 7 7 6 6 6 5 5 5 5 4 4 4 4 3 3 3 2 2 2 2 2 1 1 1 1 1 1 1 1 1 1
11 10 10 10 9 9 9 8 7 7 7 7 6 6 5 5 5 5 5 4 4 4 4 3 3 3 3 2 2 2 2 1 1 1 1 1 1 1 1 1 1 1
10 10 9 9 9 9 8 8 7 7 7 6 6 6 5 5 5 5 4 4 4 3 3 3 3 3 2 2 2 2 1 1 1 1 1 1 1 1 1 1 1 1
9 9 9 9 9 9 8 7 7 7 6 6 6 6 5 5 5 4 4 4 3 3 3 3 2 2 2 1 1 1 1 1 1 1 1 1 1 1 1 1 1 1
9 8 8 8 9 8 7 7 7 6 6 6 6 6 5 5 4 4 4 3 3 3 3 2 2 1 1 1 1 1 1 0 0 0 0 1 1 1 1 1 1 1
8 8 8 8 8 8 7 7 6 6 6 6 5 5 4 4 4 4 3 3 3 3 2 2 1 1 1 1 0 0 0 0 0 0 0 0 1 1 1 1 1 0
8 7 7 7 7 7 6 6 6 6 5 5 5 4 4 4 4 3 3 3 2 2 2 1 1 1 0 0 -0 -0 -0 -0 -0 -0 0 0 0 0 0 0 0 0
7 6 6 7 6 5 5 5 5 5 5 4 4 4 4 4 3 3 3 2 2 2 1 1 1 0 0 -0 -0 -0 -0 -0 -0 -0 -0 0 0 0 0 0 -0 -0

ECMWFNIL_850_temp_021.txt.gz
Temp
14 13 13 13 12 12 12 12 12 11 11 11 11 10 10 10 10 10 10 10 10 10 10 10 10 10 10 10 10 10 10 10 10 10 10 10 10 10 9 9 9 9
14 13 13 13 13 12 12 12 12 12 11 11 11 10 10 10 10 10 10 10 10 10 10 10 10 10 10 10 10 10 9 9 10 10 10 10 10 9 9 9 9 9
14 13 13 13 13 13 12 12 12 12 12 11 11 10 10 10 10 10 10 10 10 9 9 9 9 9 9 9 9 9 9 9 9 10 10 10 10 9 9 9 9 9
14 13 13 13 13 13 13 12 12 12 12 11 11 10 10 10 10 10 10 10 9 9 9 9 9 9 9 9 9 9 9 9 9 9 9 9 9 9 9 9 9 9
14 13 13 13 13 13 13 12 12 12 12 12 11 11 10 10 10 10 10 9 9 9 9 9 9 9 9 9 9 9 9 9 9 9 9 9 9 9 9 9 8 8
13 13 13 13 13 13 12 12 12 12 12 12 11 11 10 10 10 10 10 9 9 9 9 9 9 9 8 8 8 9 9 9 9 9 9 9 9 9 8 8 8 7
13 13 13 13 13 13 12 12 12 12 12 12 12 11 11 10 10 10 9 9 9 9 9 9 9 9 8 8 8 8 8 9 9 9 9 9 9 9 9 8 8 8
13 13 13 13 13 13 12 12 12 12 12 12 12 11 11 11 10 10 9 9 9 9 9 9 9 9 8 8 8 8 8 8 8 8 8 8 8 8 8 8 8 8
13 13 13 13 13 13 13 12 12 12 12 12 12 11 11 11 11 10 10 9 9 9 9 9 9 9 8 8 8 8 8 8 8 8 8 8 8 8 8 8 8 8
12 12 12 12 12 12 12 12 12 12 12 12 12 11 11 11 11 10 10 10 9 9 9 9 9 8 8 8 8 8 8 8 8 8 8 8 8 7 7 7 7 7
11 11 11 12 12 12 12 12 12 12 12 12 11 11 11 11 10 10 10 10 10 9 9 9 9 8 8 8 8 8 8 8 8 8 8 8 7 7 7 7 7 7
11 11 11 11 11 12 11 11 11 11 11 11 11 11 11 10 10 10 10 10 10 9 9 9 9 8 8 8 8 8 8 8 8 8 7 7 7 7 7 7 7 6
11 11 11 11 11 11 11 11 10 11 11 11 11 10 10 10 10 10 10 9 9 9 9 9 8 8 8 8 8 8 8 8 8 7 7 7 7 7 7 7 6 6
10 11 10 10 10 10 10 10 10 10 10 10 10 9 9 9 9 9 9 9 9 9 8 8 8 8 8 8 8 8 8 7 7 7 7 7 6 6 6 6 6 6
10 10 11 10 10 10 10 10 10 10 10 10 10 9 9 9 8 8 8 8 8 8 8 8 8 8 8 7 7 7 7 7 7 6 6 6 6 6 5 5 5 5
10 10 10 11 11 10 10 10 10 10 10 10 10 10 9 9 8 8 8 8 8 8 8 9 8 8 7 7 7 7 7 6 6 5 5 5 5 5 5 5 5 4
10 10 10 10 10 10 10 10 10 10 9 9 9 9 9 8 8 8 8 9 8 7 8 8 8 7 7 7 7 6 6 5 5 5 5 4 4 4 4 4 4 4
10 10 10 10 10 10 10 10 10 10 9 9 8 8 8 8 8 8 8 8 7 7 7 7 7 7 6 6 6 6 5 5 5 4 4 4 4 4 4 4 4 4
9 9 10 10 10 10 10 10 10 10 9 9 8 8 8 8 8 8 8 7 7 7 7 6 6 6 5 5 5 5 5 4 4 4 4 3 3 3 3 3 3 3
9 9 9 9 10 10 10 10 10 10 9 8 8 8 8 7 7 7 7 7 7 6 6 6 5 5 5 5 5 5 4 4 3 3 3 3 3 3 3 3 3 3
9 9 9 9 9 9 9 10 10 10 9 8 7 7 7 7 7 7 7 7 6 6 6 5 5 4 4 4 4 4 4 3 3 3 3 3 3 3 3 3 3 3
8 8 9 9 9 9 9 9 9 9 9 8 7 7 7 7 7 7 7 6 6 6 5 5 4 4 4 4 4 3 3 3 3 3 3 3 3 3 3 3 3 3
7 7 8 8 8 8 9 9 9 9 8 8 7 7 7 7 6 6 6 6 5 5 5 4 4 4 4 3 3 3 3 2 2 2 2 3 3 3 3 3 3 3
6 6 7 7 8 8 8 8 9 8 8 7 7 7 7 6 6 6 5 5 5 4 4 4 4 3 3 3 2 2 2 2 2 2 2 2 2 2 3 3 3 3
6 6 5 6 6 7 7 8 8 8 7 6 6 6 6 6 5 5 5 4 4 3 3 3 3 3 2 2 2 2 1 1 2 2 2 2 2 2 2 2 2 2
5 5 5 5 5 6 6 7 7 7 6 6 6 6 6 5 5 4 4 3 3 3 3 2 2 2 2 2 1 1 1 1 1 2 1 1 1 1 1 1 1 1

ECMWFNIL_850_temp_027.txt.gz
Temp
13 13 12 13 13 13 12 12 12 12 12 12 12 11 11 10 11 11 10 10 10 10 11 11 11 11 11 11 11 9 10 11 11 10 10 11 11 11 11 11 11 10
12 13 13 13 13 13 12 12 12 12 12 12 12 11 11 10 11 11 11 10 10 10 11 11 11 11 11 11 11 10 10 11 11 10 10 10 10 10 10 10 10 10
13 12 12 13 13 13 13 12 12 12 12 12 11 11 11 10 11 11 11 11 10 10 11 11 11 11 10 11 11 10 10 11 11 11 10 10 10 10 10 10 10 10
13 13 12 12 12 13 12 12 12 12 12 12 11 11 11 10 11 11 11 11 11 10 11 11 10 10 10 10 10 10 10 10 10 10 10 10 10 10 10 10 10 10
13 13 13 12 12 12 12 12 12 12 12 12 11 11 11 11 11 11 11 11 11 10 10 11 11 10 10 10 10 9 10 10 10 10 10 9 10 10 10 10 10 10
12 12 12 12 12 12 12 12 12 12 12 12 11 11 11 11 11 11 11 11 11 11 10 11 11 11 10 10 10 9 9 9 9 10 9 9 9 10 10 10 9 9
11 11 12 12 12 12 12 12 12 11 11 12 11 11 11 11 11 11 11 11 11 11 10 11 11 11 11 11 10 9 9 9 9 10 9 8 8 9 9 9 9 9
12 11 11 11 11 11 11 11 11 11 11 11 11 11 11 11 11 11 10 10 11 10 10 10 11 11 11 11 10 10 10 9 9 10 9 8 8 8 8 9 9 9
13 13 12 12 12 11 11 11 11 11 11 11 11 11 11 11 11 11 10 10 10 10 10 10 10 10 10 10 10 10 10 10 10 10 9 9 9 8 8 8 8 9
12 12 12 12 11 11 11 11 11 11 11 11 11 11 11 11 10 10 11 10 10 10 10 10 10 9 9 10 10 10 10 10 10 10 10 9 9 9 8 7 8 8
11 11 10 11 11 11 11 11 11 11 11 11 11 11 11 11 10 10 11 11 10 10 10 10 10 9 9 9 10 10 10 10 10 10 10 10 9 9 8 8 8 8
10 10 10 10 11 10 11 11 11 11 12 12 11 10 10 10 10 10 10 11 10 10 10 10 10 10 9 9 9 10 10 10 10 10 9 9 9 8 8 9 8 8
10 10 10 10 11 11 10 10 10 10 11 11 11 10 10 10 10 10 10 10 10 10 10 10 10 10 10 9 9 9 9 9 9 9 8 8 8 8 8 8 8 8
10 10 10 10 11 11 10 10 10 10 10 10 10 10 10 10 10 10 10 10 10 10 10 10 10 10 9 9 9 9 9 9 9 8 8 7 7 7 7 7 8 8
10 10 10 11 10 10 10 10 10 10 10 10 10 10 10 10 10 10 10 10 9 10 10 10 10 9 9 9 9 9 9 9 8 8 7 7 6 7 7 7 7 7
10 10 10 11 10 10 10 10 10 10 10 10 10 10 10 10 10 10 10 10 9 9 9 10 9 9 9 9 9 8 8 8 8 8 7 6 6 6 6 6 6 7
10 10 10 10 10 10 10 10 10 10 10 10 10 10 10 10 10 10 9 9 9 9 9 9 9 9 9 9 8 8 8 8 8 7 7 6 6 6 6 6 6 6
10 10 10 10 10 10 10 10 10 10 10 10 9 9 9 9 9 9 9 9 9 9 9 9 9 9 8 8 8 8 8 7 7 7 7 7 6 6 6 6 5 5
9 10 10 10 10 10 10 10 10 10 10 10 10 10 9 9 9 9 9 9 9 9 9 9 8 8 8 7 7 7 7 7 7 7 7 6 6 6 6 6 6 6
9 9 9 9 9 9 9 9 9 10 10 10 10 10 9 9 9 9 9 9 9 9 9 9 8 8 7 7 6 6 7 7 7 6 6 6 6 6 6 6 6 6
9 9 9 9 9 9 9 9 9 9 9 9 9 9 9 9 9 9 9 9 9 9 9 9 8 8 8 7 6 6 6 6 6 6 6 6 6 6 6 6 6 5
9 9 8 8 8 9 9 9 9 9 9 9 9 9 9 9 9 9 8 8 8 9 9 8 8 8 8 7 6 6 6 6 6 5 5 5 5 5 5 5 5 5
9 8 8 8 8 8 8 8 8 8 8 8 8 9 9 9 9 9 8 8 8 8 8 8 8 8 7 6 6 5 5 5 5 5 5 4 4 4 4 4 4 4
8 8 8 8 8 8 8 8 8 8 8 8 8 8 8 9 9 9 8 8 8 8 8 8 8 7 6 6 5 5 5 4 4 4 4 3 3 3 3 3 3 3
8 8 8 8 7 7 7 7 7 7 7 7 8 8 8 8 8 8 8 7 7 7 7 7 7 6 5 4 4 4 4 4 3 3 3 3 3 3 3 3 3 2
8 8 7 7 7 7 7 7 7 7 7 7 7 7 8 8 8 8 7 7 7 7 7 6 6 5 4 4 3 3 3 3 4 3 3 3 3 3 2 2 2 2

ECMWFNIL_850_temp_030.txt.gz
Temp
13 13 13 13 13 13 13 13 12 12 12 12 12 11 11 12 12 12 12 12 12 12 12 11 11 11 11 11 10 11 11 11 11 11 11 11 11 11 11 11 11 11
13 13 13 13 13 13 13 13 12 12 12 12 12 12 11 11 12 12 12 12 12 12 12 12 11 11 11 11 11 11 11 11 11 11 11 11 11 11 11 11 11 11
13 13 13 13 13 13 13 13 12 12 12 12 12 12 11 11 12 12 12 12 12 12 12 12 12 12 11 11 11 11 11 11 11 11 11 11 11 11 11 11 11 10
13 13 13 13 13 13 13 13 12 12 12 12 12 12 12 11 12 12 12 12 12 12 12 12 12 12 12 12 11 11 11 11 11 11 11 11 11 11 11 11 11 10
13 13 13 13 13 13 13 13 12 12 12 12 12 12 12 11 12 12 12 12 12 12 12 13 12 12 12 12 11 11 11 11 11 11 11 11 11 11 11 11 11 11
13 12 12 12 12 13 13 12 12 12 12 12 12 12 12 11 11 11 12 12 12 12 12 12 12 12 12 12 12 11 11 11 12 11 11 11 11 11 11 11 11 11
12 12 12 12 12 12 12 12 12 12 12 12 12 12 11 11 11 11 11 11 11 11 11 11 12 12 12 12 12 11 11 11 12 12 11 11 11 11 11 11 11 11
12 12 12 12 13 12 12 12 12 12 12 12 12 12 12 11 11 11 11 11 10 10 10 10 11 11 11 11 11 11 11 11 11 11 11 10 11 11 11 11 11 10
13 12 12 12 13 12 12 12 12 12 12 12 12 12 12 11 11 11 11 11 10 10 10 10 10 10 10 10 10 10 10 10 11 11 11 10 10 11 11 10 11 11
12 12 12 12 12 12 12 12 11 11 12 12 12 12 12 11 11 11 11 11 11 10 10 10 10 10 10 10 9 9 10 10 10 10 10 10 10 10 10 9 10 10
11 11 11 11 11 11 11 11 11 11 11 11 11 11 11 11 11 11 11 11 11 11 11 11 10 10 10 10 10 9 9 9 9 9 10 10 9 9 9 9 8 9
10 10 10 11 11 11 11 11 11 11 10 10 10 11 11 11 11 10 10 10 10 10 11 11 11 11 10 10 10 10 9 9 9 9 9 9 9 9 9 8 8 9
11 11 11 11 11 11 11 11 11 11 11 10 10 11 11 11 11 10 10 11 11 11 11 11 10 10 10 10 10 10 10 9 9 9 9 8 8 8 8 8 8 8
11 11 11 11 11 11 11 11 11 11 11 11 11 11 11 11 11 10 11 11 11 11 11 11 10 10 10 10 10 10 10 9 9 9 8 8 8 8 8 7 7 8
11 11 11 11 11 11 11 11 11 11 11 11 11 11 11 11 11 10 10 11 11 11 11 10 10 10 10 10 10 10 10 10 9 9 8 8 8 8 7 7 7 7
11 11 11 11 11 11 11 11 11 11 11 11 11 11 11 11 11 11 11 10 11 10 10 10 10 10 10 10 10 10 10 10 9 9 8 8 7 7 7 7 7 7
10 10 11 11 11 11 11 11 11 11 11 11 11 11 11 11 11 11 11 11 11 10 10 10 10 10 10 10 10 10 10 10 9 9 9 8 7 7 7 6 6 6
10 10 10 10 10 10 10 11 11 11 11 11 11 11 11 10 10 11 11 11 11 11 10 10 10 10 10 10 10 10 9 9 9 9 9 8 7 7 6 6 6 6
10 10 10 10 10 10 10 10 10 10 10 10 11 11 10 10 10 10 10 10 10 10 10 10 9 10 10 9 9 9 9 9 9 9 8 7 6 6 6 6 6 6
10 10 10 10 10 10 10 10 10 10 10 10 10 10 10 10 10 10 10 9 9 10 10 9 9 10 10 10 9 9 9 9 9 8 8 7 6 7 6 6 6 6
9 10 10 9 9 9 9 9 9 9 9 9 9 9 10 10 10 10 10 9 9 9 9 9 9 9 9 9 9 9 9 8 8 8 7 7 6 6 6 6 6 6
10 9 9 9 9 9 9 9 9 9 9 9 9 9 9 9 9 9 9 9 9 9 9 9 9 8 9 9 9 8 8 8 8 8 7 7 6 6 6 6 5 5
9 9 9 9 9 9 9 9 9 9 9 9 9 9 9 9 9 9 9 9 9 9 9 8 8 8 8 8 8 8 8 8 7 7 7 6 6 5 5 5 5 4
9 9 9 9 9 9 9 8 8 8 8 8 8 8 8 8 8 9 9 9 9 9 9 8 8 8 8 8 8 7 7 7 7 6 6 5 5 4 4 4 4 4
9 8 9 8 8 8 8 8 8 8 8 8 8 8 8 8 8 8 8 9 9 9 9 8 8 8 8 7 7 7 7 7 6 6 5 4 4 4 4 3 3 3
8 8 8 8 8 8 8 8 7 7 7 7 7 7 8 8 8 8 8 8 8 8 8 8 8 8 7 7 6 6 6 6 6 6 5 4 4 4 3 3 4 4

ECMWFNIL_850_temp_033.txt.gz
Temp
14 15 15 14 14 14 14 14 14 14 14 14 13 13 13 13 12 12 12 12 12 12 12 12 11 11 11 12 11 11 11 11 11 11 11 12 12 12 12 12 12 12
13 14 14 14 13 13 13 14 13 13 13 13 13 13 13 13 12 13 12 12 12 12 12 12 12 11 11 11 11 11 11 11 11 11 11 11 11 12 12 12 12 12
13 14 14 14 13 13 13 13 12 12 12 13 12 12 13 13 12 12 12 12 12 12 12 12 12 12 12 12 12 11 11 11 11 11 11 11 11 11 12 12 12 12
13 13 13 13 13 12 12 12 12 12 12 12 12 12 12 12 12 12 12 12 12 12 12 12 12 12 12 12 12 12 12 12 11 12 11 11 11 11 11 12 12 12
13 13 13 13 13 12 12 12 12 12 12 12 12 12 12 12 12 12 12 12 12 12 12 12 12 12 12 12 12 12 12 12 12 12 11 11 11 11 11 11 11 11
13 13 13 13 13 13 13 13 12 12 12 12 12 12 12 12 12 12 12 11 11 11 11 12 12 12 12 11 11 12 12 12 12 12 12 12 11 11 11 11 11 11
12 12 12 12 13 13 13 13 12 12 12 12 12 12 12 12 11 11 11 11 11 11 11 11 11 11 11 11 11 11 11 11 11 11 11 12 12 11 11 11 11 11
12 12 12 12 12 12 13 12 12 12 12 12 12 12 12 12 11 11 11 11 11 11 11 10 10 10 10 10 10 10 10 11 11 11 11 11 11 11 11 11 11 11
12 12 12 12 12 12 12 12 12 12 12 12 12 12 12 12 11 11 11 11 11 11 10 10 10 10 10 10 10 10 10 10 10 10 10 10 10 10 11 11 10 11
12 12 11 12 12 12 12 12 12 12 12 12 12 12 12 11 11 11 11 11 11 11 11 10 10 10 10 10 10 10 10 10 10 10 10 10 9 10 10 10 10 10
11 11 11 11 11 11 11 11 12 12 12 12 12 12 12 11 11 11 11 11 11 12 12 11 10 10 10 10 10 9 10 10 10 10 10 10 9 9 9 9 9 9
11 11 11 11 11 11 11 11 11 11 11 12 12 12 12 11 11 11 11 11 11 11 11 11 10 10 10 11 11 10 10 9 10 10 10 10 9 9 9 9 8 8
11 11 11 11 10 11 11 11 11 11 11 11 11 11 11 11 11 11 11 11 11 11 11 10 10 10 11 11 11 11 10 10 10 10 10 10 9 9 9 8 8 8
11 10 10 11 10 11 11 11 11 11 11 11 11 11 11 11 11 11 11 11 11 11 11 11 11 11 11 10 10 11 11 10 10 9 10 10 9 9 8 8 8 8
10 10 11 11 11 11 11 11 11 11 11 11 11 11 11 11 11 11 11 10 10 10 10 10 10 11 11 10 10 10 10 10 10 9 9 9 9 9 8 8 8 8
10 10 11 11 11 11 11 11 11 11 11 11 11 11 11 11 11 11 11 10 10 10 10 10 10 10 10 10 10 10 10 10 10 9 9 9 9 9 9 8 8 8
10 10 10 10 10 10 10 10 11 11 11 11 11 11 11 11 10 10 11 11 11 10 10 10 10 10 10 10 10 10 10 10 10 9 9 9 9 9 9 8 8 8
10 10 10 10 10 10 10 10 10 10 10 10 10 10 10 10 10 10 10 10 10 10 10 10 10 10 10 10 10 10 9 9 9 9 9 8 8 8 8 8 8 8
10 10 10 10 10 10 10 10 10 10 10 10 10 10 10 10 10 10 10 10 10 10 10 10 10 10 10 10 10 10 9 9 9 9 9 8 8 8 8 8 8 8
10 10 10 10 10 10 10 10 10 10 10 10 10 10 10 10 10 10 10 9 9 9 9 9 9 9 9 10 10 10 9 9 9 9 8 8 8 8 8 8 7 7
9 9 9 9 9 9 9 9 9 10 10 10 10 10 10 10 10 10 10 9 9 9 9 9 9 9 9 9 9 9 9 8 8 8 8 8 8 8 8 7 7 7
9 9 9 9 9 9 9 9 9 9 9 9 9 9 9 9 9 9 9 9 9 9 9 9 9 9 9 9 9 8 8 8 8 8 8 8 7 7 7 7 6 6
9 9 9 9 9 9 9 9 8 8 8 8 9 9 9 9 9 9 9 9 9 9 9 9 9 9 9 9 9 8 8 8 8 8 7 7 7 7 6 6 6 6
9 9 9 9 9 9 9 9 8 8 8 8 8 8 8 8 8 8 8 8 8 8 9 9 9 9 9 9 9 8 8 8 8 7 7 7 6 6 6 6 5 5
9 9 9 9 9 9 8 8 8 8 8 8 8 8 8 8 8 8 8 8 8 8 8 8 8 8 8 8 8 8 8 8 7 7 7 6 6 6 6 6 5 5
8 8 8 8 8 8 8 8 8 8 8 7 7 7 7 7 7 7 7 7 7 8 8 8 8 8 8 8 8 8 7 7 7 6 6 6 6 5 5 5 5 4